Regional Weather Roundup
Issued by NWS

Home | Current Version | Previous Version | Graphics & Text | Print | Product List | Glossary On
Versions: 1 2 3 4 5 6 7 8 9 10 11 12 13 14 15 16 17 18 19 20 21 22 23 24 25 26 27
000
ASUS45 KCYS 262210
RWRWY

WYOMING REGIONAL WEATHER ROUNDUP
NATIONAL WEATHER SERVICE CHEYENNE WY
400 PM MDT FRI MAY 26 2017

NOTE:  "FAIR" INDICATES FEW OR NO CLOUDS BELOW 12,000 FEET
WITH NO SIGNIFICANT WEATHER AND/OR OBSTRUCTIONS TO VISIBILITY.

WYZ001-262300-
YELLOWSTONE NATIONAL PARK

CITY           SKY/WX    TMP DP  RH WIND       PRES   REMARKS
LK YELLOWSTONE   N/A     33  33 100 E3        30.02R
W YELLOWSTONE  NOT AVBL

$$
WYZ002>013-054>058-071-098>099-262300-
NORTHERN WYOMING

CITY           SKY/WX    TMP DP  RH WIND       PRES   REMARKS
JACKSON        CLOUDY    43  39  87 N5        29.96R
CODY           LGT RAIN  44  39  82 W7        30.00S
GREYBULL       LGT RAIN  56  36  47 W8        29.90R
WORLAND        LGT RAIN  50  44  80 SW10      29.94R
SHERIDAN       LGT RAIN  53  43  68 W7        29.94R
BUFFALO        LGT RAIN  50  38  63 W3        29.96S
GILLETTE       CLOUDY    57  38  48 CALM      29.92S
HULETT         CLOUDY    57  34  41 CALM      29.93S
NEWCASTLE      LGT RAIN  55  32  41 SW7       29.94R

$$
WYZ014>020-022>026-101>103-262300-
CENTRAL WYOMING

CITY           SKY/WX    TMP DP  RH WIND       PRES   REMARKS
BIG PINEY      FAIR      55  35  47 NW20      29.91R
PINEDALE       MOCLDY    50  36  57 NW10G17   29.92R
DUBOIS         CLOUDY    41  36  81 SE6       29.95S
LANDER         CLOUDY    46  39  76 NW8       29.92R
RIVERTON       CLOUDY    46  41  82 NE6       29.94R
CASPER         CLOUDY    44  42  93 E15       29.91F
DOUGLAS        LGT RAIN  49  42  77 N17       29.95R

$$
WYZ021-027>030-104>119-262300-
SOUTHERN WYOMING

CITY           SKY/WX    TMP DP  RH WIND       PRES   REMARKS
EVANSTON       FAIR      56  28  34 SW23G29   29.95R
KEMMERER         N/A     55  28  35 W23G36    29.93R
FORT BRIDGER   MOCLDY    55  28  36 W30G38    29.96S
ROCK SPRINGS   CLOUDY    50  35  56 SW16      29.93R
DIXON            N/A     60  31  32 SW21G38   29.86F
RAWLINS        FAIR      54  41  61 N23G35    29.90R
SARATOGA       LGT RAIN  52  41  66 W8        29.94R
LARAMIE        CLOUDY    52  42  69 NE10      29.87S
CHEYENNE       LGT RAIN  55  49  80 S18G31    29.88F
TORRINGTON     LGT RAIN  54  47  77 E12       29.89F
PINE BLUFFS    CLOUDY    61  45  55 SE13      29.89F

$$




USA.gov is the U.S. government's official web portal to all federal, state and local government web resources and services.